Location: Newark
(34.9500°N, 139.9667°E)
Time: 19:37:36
(UTC+00:00)

Vanguard 1 Rocket - Pass Details

Date: 14 December 2019
Orbit: 650 x 4226 km, 34.3° (Epoch: 22 January)

Event Time Altitude Azimuth Distance (km) Brightness Sun altitude
Rises 07:04:10 0° 203° (SSW) 8,278 13.3 3.7°
Reaches altitude 10° 07:11:06 10° 194° (SSW) 7,400 12.8 2.4°
Maximum altitude 07:31:43 32° 142° (SE) 5,332 11.2 -1.2°
Drops below altitude 10° 07:47:23 10° 88° (E) 5,748 10.9 -4.1°
Enters shadow 07:50:36 - 81° (E) 6,149 11.0 -4.7°
Sets 07:51:42 0° 79° (E) 6,304 - -4.9°
